Torna al catalogo

STARLINK-36254

AttivoComunicazioniVLEO
NORAD 68338·PAYLOAD·🇺🇸 United States

Lanciato Mar 22, 2026 da Cape Canaveral Space Force Station

Loading…

Prossimi Passaggi (prossime 24 ore)

TLE

AggiornatoSource: CelesTrak SupGP

Epoca: Sep 14, 2026, 22:46 UTC

1 68338C 26059T   26257.94909722 -.00056225  00000+0 -16605-2 0  2572
2 68338  53.1575 181.3429 0001297  89.4117 215.2110 15.34431314    15

Traccia STARLINK-36254 in tempo reale con AllMySat

Download on the App Store